Weather WX

World > North America > United States > Nebraska

Brainard, Nebraska Regional Weather

Lat: 41.18N, Lon: 97W
Wx Zone: NEZ050
Warning FLW WEATHER ALERT - EXCESSIVE HEAT WARNING (More Info. Click Here) Warning
Feedback

Brainard, NE Regional Weather

Expires:201907190900;;290879
ASUS43 KOAX 190810
RWRNE 

WEATHER ROUNDUP FOR NEBRASKA
NATIONAL WEATHER SERVICE OMAHA NE
300 AM CDT FRI JUL 19 2019

NOTES: SATELLITE DATA IS BEING USED TO AUGMENT CLOUD COVER ABOVE
       12000 FEET.
       "FAIR" INDICATES FEW OR NO CLOUDS BELOW 12,000 FEET WITH NO
       SIGNIFICANT WEATHER AND/OR OBSTRUCTIONS TO VISIBILITY.

   

NEZ050>053-065>068-078-088>093-190900-
SOUTHEAST NEBRASKA
  
CITY           SKY/WX    TMP DP  RH WIND       PRES   REMARKS
LINCOLN        FAIR      84  69  60 S14       29.72S                  
OMAHA EPPLEY   FAIR      84  73  69 S10       29.71S HX  90           
BEATRICE       FAIR      84  72  66 S14G23    29.75S HX  90           
FALLS CITY     FAIR      84  72  67 S15G25    29.76S                  
NEBRASKA CITY  FAIR      82  72  72 SW14      29.74F                  
PLATTSMOUTH    FAIR      82  73  75 S10       29.73S                  
$$


SKY/WX - Weather  TMP - Temperature  DP - Dew Point  RH - Relative Humidity
WIND - Wind Direction/Speed PRES - Barometric Pressure VSB - Visibility
WCI - Wind Chill Index E13G22 Wind - East Wind 13 mph/Gusts of 22 mph